CZ-4C R/B

Satellite information

Favourite Embed

Satellite Type and Status

ROCKET BODYIN ORBIT

Key statistics

Satellite CZ-4C R/B at a glance.

Uptime

4045

Days in orbit

Revolutions

≈ 13.7

Per day

Orbit

LEO

Low Earth Orbit

Inclination

63.4

Latest

Satellite identification and parameters

Extended collection of information and parameters for CZ-4C R/B.

Object identification

Identified? True

Debris? False

Object name: CZ-4C R/B

International designator: 2014-047D

Object number (NORAD): 40112

Object ID (CCSDS): 40112

Country: PEOPLES REPUBLIC OF CHINA (PRC)

Current information (Y/N): Y

RCS size: LARGE

Orbital parameters

Period: 105.096 minutes

Inclination: 63.4159 deg

SMA: 7377.058 km

Apoapsis: 1392.092 km

Periapsis: 605.753 km

RAAN: 313.9166 deg

Eccentricy: 0.05329624

Argument of periapsis: 359.7893 deg

Mean anomaly: 0.2842 deg

Mean motion: 13.70181126 rev/day

Mean motion (dot): 0.0000014 rev/day2

B* drag term: 0.00010457291 1/REarth

Two-line elements (TLE)

Creation date: Sept. 4, 2025, 10:13 a.m.

Reference frame: TEME

Reference center: EARTH

Epoch: Sept. 4, 2025, 4:33 a.m. UTC

TLE line 0: 0 CZ-4C R/B

TLE line 1: 1 40112U 14047D 25247.19016487 .00000140 00000-0 10457-3 0 9995

TLE line 2: 2 40112 63.4159 313.9166 0532962 359.7893 0.2842 13.70181126553614

Live tracking on map

Real-time ground track for satellite CZ-4C R/B.

In-orbit conjunctions

A list of the most updated potential collisions computed for object CZ-4C R/B.

Target Orbit TCA Probability of collision Miss distance Type
SL-14 DEB LEO 2025-04-16 22:18:00 0.0002373862 906.0 (m) DEBRIS
CZ-6A DEB SSO 2024-09-28 21:30:58 0.0002090801 295.0 (m) DEBRIS

Associated space launch

CZ-4C R/B was lifted into orbit during the mission ‘Long March 4C | Yaogan 20A, Yaogan 20B, Yaogan 20C’, on board a Long March 4C space rocket.

The launch took place on Aug. 9, 2014, 5:45 a.m. from Launch Area 4 (SLS-2 / 603).

For more information about the launch, click the button.

Launch to space Long March 4C | Yaogan 20A, Yaogan 20B, Yaogan 20C
Long March 4C | Yaogan 20A, Yaogan 20B, Yaogan 20C

Agency: N/A

Status: Launch Successful

Launch date: Aug. 9, 2014, 5:45 a.m. UTC

Rocket: Long March 4C

Launch pad: Launch Area 4 (SLS-2 / 603)

Location: Jiuquan Satellite Launch Center, People's Republic of China

...

Latest news about this satellite

There are no fresh news available about this satellite. Check back as we update our databases every day.


Newsletter sign-up

Weekly statistics, charts and insights to help you stay on top of the space industry.